THOR ABLESTAR DEB, 1943

Orbit data source: Space-Track

THOR ABLESTAR DEB, 1943 is space debris in LEO originally from a launch on Thu, 29 Jun 1961 UTC launched from the Air Force Eastern Test Range (AFETR). Debris objects in space refer to the collection of defunct objects orbiting the Earth. Examples of debris include non-operational satellites, rocket bodies, and fragments generated from explosions, collisions, or faulty payload assembly.

Loading next visibility...
Identifier
1943, 1961-015HT
Orbit
LEO
Country
Flag of USUS
Related business
Manufacturer
Unknown
Mission
Spacecraft
Bus & Motor
Unknown
Mass
Unknown
Launch date (UTC)
1961-06-29 (65 years ago)
Launch vehicle
Unknown
Launch site
Air Force Eastern Test Range (AFETR)
Object type
Payload
Rocket body
Debris
Shape & HBR
Unknown shape, 0.1 m
Radar Cross Section
Medium (>0.1 m² and <1 m²)

Expand to show TLE details & history
Last TLE update: 1 day ago

TLE from 1 day ago
0 THOR ABLESTAR DEB
1 01943U 61015HT  26175.07798650  .00000762  00000-0  33521-3 0  9995
2 01943  66.8540 155.7135 0060967 284.6880  74.7465 14.27790356345143
Epoch: 2026-06-24T01:52Z
TLE epoch observation values (Epoch: 2026-06-24T01:52:18.033Z)
Latitude
-0.00006°
Longitude
-144.60203°
Altitude
789.979 km
Speed
7.465 km/s
True Right ascension
10h 22m 51s
True Declination
0° 00' 00"
Sunlit
Object was in daylight at epoch
Visualization orbit readout
Latitude
Unknown
Longitude
Unknown
Altitude
Unknown
Speed
Unknown
Apparent Right ascension
Unknown
Apparent Declination
Unknown
Sunlit
N/A
Visualization observer readout
Local Sidereal Time
16:19:24
Azimuth
Unknown
Elevation
Unknown
Doppler factor
Unknown
Orbital elements
Apogee altitude
841.233 km
Perigee altitude
753.737 km
Semi-major axis
7,175.622 km
Eccentricity
0.0061
Inclination
66.854°
RAAN
155.7135°
Arg. of periapsis
284.688°
True anomaly
75.42186°
Mean anomaly
74.7465°
Eccentric anomaly
75.08404°
Mean motion
3.5707 °/min
Orbital period
100.82 mins
BSTAR
0.00033521

Documentation

Showing up to 5 results
|